This demonstration page uses our WeatherBlox Daily Observations layout. Learn more.

Left ArrowRight Arrow

39.01783, -85.05884

Hourly Observations for March 16, 2017

Temp ( °F °C ) Dew Point ( °F °C ) Humidity (%) Winds ( mph kmh ) Pressure ( in mb ) Visibility ( mi km ) Precip ( " mm )
12:52 am 00:52 Clear 24 -4.4 12 -11.1 60 60 VRB 6 9 30.34 1028 10 16 0.00 0.00
1:52 am 01:52 Clear 21 -6.1 12 -11.1 68 68 WNW 6 9 30.34 1028 10 16 0.00 0.00
2:52 am 02:52 Clear 21 -6.1 12 -11.1 68 68 W 7 11 30.35 1028 10 16 0.00 0.00
3:52 am 03:52 Clear 21 -6.1 12 -11.1 68 68 W 8 13 30.34 1028 10 16 0.00 0.00
4:52 am 04:52 Clear 19 -7.2 12 -11.1 74 74 W 9 15 30.34 1027 10 16 0.00 0.00
5:52 am 05:52 Clear 22 -5.6 14 -10 71 71 WNW 13 20 30.35 1028 10 16 0.00 0.00
6:52 am 06:52 Clear 19 -7.2 13 -10.6 77 77 W 7 11 30.37 1028 10 16 0.00 0.00
7:52 am 07:52 Sunny 16 -8.9 12 -11.1 84 84 Calm 30.38 1029 8 13 0.00 0.00
8:52 am 08:52 Sunny 22 -5.6 17 -8.3 82 82 Calm 30.39 1029 10 16 0.00 0.00
9:52 am 09:52 Sunny 27 -2.8 16 -8.9 63 63 W 6 9 30.40 1030 10 16 0.00 0.00
10:52 am 10:52 Sunny 30 -1.1 14 -10 51 51 VRB 5 7 30.41 1030 10 16 0.00 0.00
11:52 am 11:52 Sunny 33 0.6 12 -11.1 42 42 WSW 7 11 30.41 1030 10 16 0.00 0.00
12:52 pm 12:52 Sunny 35 1.7 12 -11.1 38 38 WSW 12 19 30.40 1030 10 16 0.00 0.00
1:52 pm 13:52 Sunny 37 2.8 11 -11.7 34 34 SW 8 13 30.38 1029 10 16 0.00 0.00
2:52 pm 14:52 Sunny 39 3.9 11 -11.7 31 31 Calm 30.35 1028 10 16 0.00 0.00
3:52 pm 15:52 Sunny 42 5.6 10 -12.2 27 27 WNW 8 13 30.33 1027 10 16 0.00 0.00
4:52 pm 16:52 Sunny 42 5.6 8 -13.3 24 24 VRB 3 6 30.32 1027 10 16 0.00 0.00
5:52 pm 17:52 Sunny 43 6.1 10 -12.2 26 26 W 5 7 30.31 1026 10 16 0.00 0.00
6:52 pm 18:52 Mostly Sunny 41 5 10 -12.2 28 28 SW 5 7 30.31 1026 10 16 0.00 0.00
7:52 pm 19:52 Mostly Clear 39 3.9 8 -13.3 28 28 WSW 5 7 30.31 1026 10 16 0.00 0.00
8:52 pm 20:52 Mostly Clear 34 1.1 9 -12.8 35 35 SSW 3 6 30.31 1026 10 16 0.00 0.00
9:52 pm 21:52 Partly Cloudy 29 -1.7 14 -10 54 54 SSW 5 7 30.31 1027 10 16 0.00 0.00
10:52 pm 22:52 Clear 32 0 13 -10.6 45 45 S 3 6 30.31 1026 10 16 0.00 0.00
11:52 pm 23:52 Clear 31 -0.6 11 -11.7 43 43 S 6 9 30.29 1026 10 16 0.00 0.00

Powered by AerisWeather